AFR168 KLAX-LFPG

Flight info

Callsign AFR168
Flight time N/A
Altitude 33000
Route OSHNN1 BEALE DCT EEVUN DCT BCE DCT KD57Q DCT KD66S DCT KD75U DCT KD87W/N0484F350 DCT KP06Y DCT KP15A DCT OTLUR DCT 54N090W 5730N08000W DCT JELCO/N0472F370 DCT GRIBS/M083F370 DCT KETLA DCT 63N050W 6230N04000W 61N030W 5930N02000W DCT AGORI/N0471F370 DCT OSBOX DCT APSOV DCT PEPOD DCT MAKUX DCT SOSIM L15 KEPAD L151 MID/N0424F290 Y803 SFD UM605 BIBAX
Aircraft A388/J-SADE2E3FGHIJ3J4J5M1RWXY/LB1D1

Departure

Time 2026-04-23 18:19
Airport Los Angeles International Airport (KLAX)

Arrival

Time N/A
Airport Charles de Gaulle International Airport (LFPG)
Time Latitude Longitude Altitude Speed Heading
2026-04-23 17:53 33.94099 -118.41092 131 ft 0 kts 83°
2026-04-23 18:04 33.94097 -118.41106 127 ft 2 kts 83°
2026-04-23 18:04 33.94095 -118.41126 129 ft 2 kts 83°
2026-04-23 18:04 33.94093 -118.41146 131 ft 2 kts 83°
2026-04-23 18:05 33.94091 -118.41166 125 ft 2 kts 79°
2026-04-23 18:05 33.94083 -118.41184 125 ft 2 kts 53°
2026-04-23 18:05 33.94070 -118.41191 127 ft 1 kts 13°
2026-04-23 18:05 33.94068 -118.41191 137 ft 0 kts
2026-04-23 18:09 33.94070 -118.41191 125 ft 1 kts
2026-04-23 18:09 33.94073 -118.41190 126 ft 0 kts
2026-04-23 18:10 33.94074 -118.41190 126 ft 1 kts
2026-04-23 18:10 33.94088 -118.41191 128 ft 4 kts 351°
2026-04-23 18:10 33.94134 -118.41199 128 ft 9 kts 351°
2026-04-23 18:11 33.94211 -118.41213 126 ft 12 kts 352°
2026-04-23 18:11 33.94294 -118.41227 128 ft 12 kts 352°
2026-04-23 18:11 33.94380 -118.41241 128 ft 13 kts 352°
2026-04-23 18:11 33.94469 -118.41256 127 ft 13 kts 352°
2026-04-23 18:12 33.94561 -118.41271 127 ft 13 kts 352°
2026-04-23 18:12 33.94650 -118.41284 128 ft 12 kts 354°
2026-04-23 18:12 33.94732 -118.41293 128 ft 12 kts
2026-04-23 18:12 33.94790 -118.41247 125 ft 10 kts 65°
2026-04-23 18:13 33.94809 -118.41159 129 ft 12 kts 79°
2026-04-23 18:13 33.94818 -118.41058 125 ft 13 kts 85°
2026-04-23 18:13 33.94825 -118.40944 128 ft 14 kts 86°
2026-04-23 18:13 33.94840 -118.40824 130 ft 15 kts 80°
2026-04-23 18:14 33.94855 -118.40715 130 ft 10 kts 83°
2026-04-23 18:14 33.94863 -118.40625 126 ft 11 kts 84°
2026-04-23 18:14 33.94872 -118.40533 129 ft 11 kts 82°
2026-04-23 18:14 33.94877 -118.40480 125 ft 1 kts 83°
2026-04-23 18:15 33.94878 -118.40478 125 ft 0 kts 82°
2026-04-23 18:15 33.94879 -118.40469 126 ft 2 kts 83°
2026-04-23 18:15 33.94879 -118.40461 127 ft 2 kts 83°
2026-04-23 18:16 33.94884 -118.40415 129 ft 10 kts 83°
2026-04-23 18:16 33.94894 -118.40322 129 ft 12 kts 83°
2026-04-23 18:16 33.94905 -118.40215 126 ft 14 kts 83°
2026-04-23 18:17 33.94932 -118.39976 128 ft 13 kts 65°
2026-04-23 18:17 33.94996 -118.39924 126 ft 10 kts 354°
2026-04-23 18:17 33.95031 -118.39951 125 ft 4 kts 292°
2026-04-23 18:17 33.95035 -118.39976 125 ft 0 kts 264°
2026-04-23 18:18 33.95029 -118.40058 130 ft 36 kts 264°
2026-04-23 18:18 33.94971 -118.40651 127 ft 106 kts 264°
2026-04-23 18:18 33.94857 -118.41764 129 ft 155 kts 262°
2026-04-23 18:18 33.94696 -118.43135 309 ft 172 kts 264°
2026-04-23 18:19 33.94552 -118.44562 859 ft 171 kts 264°
2026-04-23 18:19 33.94418 -118.45988 1364 ft 173 kts 263°
2026-04-23 18:19 33.94326 -118.47438 1836 ft 174 kts 268°
2026-04-23 18:19 33.94295 -118.48926 1933 ft 183 kts 268°
2026-04-23 18:20 33.94247 -118.50513 2060 ft 194 kts 268°
2026-04-23 18:20 33.94130 -118.52174 2111 ft 207 kts 265°
2026-04-23 18:20 33.93985 -118.53962 2215 ft 220 kts 265°
2026-04-23 18:20 33.93834 -118.55881 2381 ft 240 kts 265°
2026-04-23 18:21 33.93671 -118.57976 2583 ft 261 kts 265°
2026-04-23 18:21 33.93497 -118.60171 3138 ft 265 kts 264°
2026-04-23 18:21 33.92927 -118.62293 3703 ft 271 kts 238°
2026-04-23 18:21 33.91596 -118.63906 4316 ft 275 kts 210°
2026-04-23 18:22 33.89796 -118.64636 4907 ft 277 kts 183°
2026-04-23 18:22 33.87872 -118.64528 5517 ft 278 kts 172°
2026-04-23 18:22 33.85953 -118.64181 6123 ft 280 kts 171°
2026-04-23 18:22 33.84063 -118.63602 6709 ft 283 kts 158°
2026-04-23 18:23 33.82891 -118.62892 7085 ft 285 kts 148°
2026-04-23 18:23 33.79037 -118.59625 8347 ft 295 kts 147°
2026-04-23 18:24 33.75605 -118.56848 9435 ft 303 kts 148°
2026-04-23 18:24 33.73834 -118.55418 9973 ft 308 kts 148°
2026-04-23 18:24 33.72040 -118.53967 10340 ft 318 kts 149°
2026-04-23 18:25 33.69009 -118.49797 10621 ft 354 kts 114°
2026-04-23 18:25 33.68167 -118.46940 10848 ft 366 kts 109°
2026-04-23 18:25 33.67334 -118.44035 11294 ft 370 kts 110°
2026-04-23 18:25 33.66475 -118.41105 11765 ft 374 kts 110°
2026-04-23 18:26 33.65600 -118.38150 12223 ft 378 kts 110°
2026-04-23 18:26 33.64821 -118.35120 12665 ft 382 kts 102°
2026-04-23 18:26 33.64452 -118.31965 13135 ft 386 kts 92°
2026-04-23 18:26 33.64446 -118.28708 13581 ft 390 kts 88°
2026-04-23 18:27 33.64466 -118.25482 14014 ft 394 kts 89°
2026-04-23 18:27 33.64474 -118.22188 14448 ft 396 kts 87°
2026-04-23 18:27 33.64925 -118.18932 14847 ft 396 kts 68°
2026-04-23 18:27 33.66183 -118.16041 15265 ft 391 kts 48°
2026-04-23 18:28 33.68101 -118.13773 15635 ft 385 kts 31°
2026-04-23 18:28 33.70337 -118.12011 16049 ft 385 kts 26°
2026-04-23 18:28 33.72620 -118.10305 16461 ft 388 kts 27°
2026-04-23 18:28 33.74895 -118.08494 16887 ft 392 kts 29°
2026-04-23 18:29 33.77131 -118.06598 17309 ft 396 kts 31°
2026-04-23 18:29 33.79359 -118.04636 17700 ft 399 kts 31°
2026-04-23 18:29 33.81605 -118.02625 18112 ft 402 kts 32°
2026-04-23 18:29 33.83852 -118.00600 18513 ft 405 kts 32°
2026-04-23 18:30 33.86122 -117.98553 18883 ft 407 kts 32°
2026-04-23 18:30 33.88389 -117.96509 19217 ft 410 kts 32°
2026-04-23 18:30 33.90667 -117.94455 19570 ft 411 kts 32°
2026-04-23 18:30 33.92954 -117.92383 19907 ft 414 kts 32°
2026-04-23 18:31 33.95251 -117.90282 20242 ft 417 kts 32°
2026-04-23 18:31 33.97562 -117.88164 20593 ft 418 kts 32°
2026-04-23 18:31 33.99890 -117.86030 20953 ft 421 kts 32°
2026-04-23 18:31 34.02223 -117.83893 21280 ft 423 kts 32°
2026-04-23 18:32 34.04577 -117.81736 21610 ft 426 kts 32°
2026-04-23 18:32 34.06938 -117.79573 21923 ft 428 kts 32°
2026-04-23 18:32 34.09213 -117.77192 22242 ft 435 kts 41°
2026-04-23 18:32 34.11214 -117.74418 22571 ft 441 kts 47°
2026-04-23 18:33 34.13117 -117.71549 22867 ft 443 kts 47°
2026-04-23 18:33 34.14427 -117.69602 23078 ft 445 kts 47°
2026-04-23 18:33 34.16390 -117.66696 23395 ft 447 kts 46°
2026-04-23 18:33 34.18367 -117.63769 23676 ft 450 kts 46°
2026-04-23 18:34 34.20351 -117.60827 23963 ft 452 kts 47°
2026-04-23 18:34 34.22339 -117.57873 24212 ft 455 kts 47°
2026-04-23 18:34 34.24343 -117.54890 24409 ft 458 kts 47°
2026-04-23 18:34 34.26354 -117.51897 24646 ft 460 kts 47°
2026-04-23 18:35 34.28375 -117.48882 24927 ft 462 kts 47°
2026-04-23 18:35 34.30407 -117.45850 25140 ft 466 kts 47°
2026-04-23 18:35 34.32447 -117.42802 25441 ft 468 kts 47°
2026-04-23 18:35 34.34509 -117.39720 25706 ft 471 kts 47°
2026-04-23 18:36 34.36576 -117.36627 25984 ft 473 kts 47°
2026-04-23 18:36 34.38654 -117.33515 26275 ft 476 kts 47°
2026-04-23 18:36 34.40743 -117.30384 26556 ft 479 kts 47°
2026-04-23 18:36 34.42847 -117.27227 26855 ft 481 kts 47°
2026-04-23 18:37 34.44957 -117.24058 27158 ft 484 kts 47°
2026-04-23 18:37 34.47053 -117.20908 27482 ft 486 kts 47°
2026-04-23 18:37 34.49177 -117.17714 27785 ft 488 kts 47°
2026-04-23 18:37 34.51313 -117.14498 28106 ft 491 kts 47°
2026-04-23 18:38 34.53493 -117.11212 28424 ft 494 kts 47°
2026-04-23 18:38 34.55658 -117.07967 28733 ft 496 kts 46°
2026-04-23 18:38 34.57866 -117.04748 29046 ft 498 kts 46°
2026-04-23 18:38 34.60095 -117.01527 29378 ft 500 kts 46°
2026-04-23 18:39 34.62308 -116.98325 29702 ft 502 kts 46°
2026-04-23 18:39 34.64584 -116.95019 30024 ft 505 kts 46°
2026-04-23 18:39 34.66831 -116.91743 30354 ft 507 kts 46°
2026-04-23 18:39 34.69092 -116.88440 30700 ft 507 kts 47°
2026-04-23 18:40 34.71314 -116.85188 31051 ft 508 kts 47°
2026-04-23 18:40 34.73581 -116.81868 31393 ft 509 kts 47°
2026-04-23 18:40 34.75838 -116.78560 31717 ft 510 kts 47°
2026-04-23 18:40 34.78103 -116.75237 32049 ft 511 kts 47°
2026-04-23 18:41 34.80384 -116.71888 32335 ft 513 kts 47°
2026-04-23 18:41 34.82669 -116.68529 32637 ft 515 kts 47°
2026-04-23 18:41 34.84950 -116.65173 32890 ft 517 kts 47°
2026-04-23 18:41 34.87273 -116.61825 33124 ft 519 kts 45°
2026-04-23 18:42 34.89728 -116.58542 33089 ft 527 kts 43°
2026-04-23 18:42 34.94798 -116.51911 33069 ft 538 kts 44°
2026-04-23 18:43 34.99864 -116.45173 33052 ft 539 kts 44°
2026-04-23 18:43 35.04935 -116.38371 33049 ft 541 kts 44°
2026-04-23 18:44 35.09981 -116.31582 33052 ft 540 kts 44°
2026-04-23 18:44 35.15015 -116.24801 33040 ft 541 kts 44°
2026-04-23 18:45 35.20064 -116.17986 33040 ft 541 kts 44°
2026-04-23 18:45 35.25120 -116.11148 33042 ft 541 kts 44°
2026-04-23 18:46 35.30172 -116.04299 33046 ft 543 kts 44°
2026-04-23 18:46 35.35234 -115.97424 33059 ft 544 kts 44°
2026-04-23 18:47 35.40299 -115.90532 33072 ft 545 kts 44°
2026-04-23 18:47 35.45377 -115.83607 33072 ft 545 kts 44°
2026-04-23 18:48 35.50428 -115.76706 33082 ft 546 kts 44°
2026-04-23 18:48 35.55494 -115.69769 33080 ft 547 kts 44°
2026-04-23 18:49 35.60581 -115.62790 33087 ft 547 kts 44°
2026-04-23 18:49 35.65653 -115.55817 33088 ft 547 kts 44°
2026-04-23 18:50 35.69869 -115.50012 33088 ft 547 kts 44°
2026-04-23 18:50 35.75794 -115.41830 33091 ft 547 kts 44°
2026-04-23 18:51 35.80860 -115.34819 33090 ft 548 kts 44°
2026-04-23 18:51 35.85911 -115.27814 33092 ft 548 kts 43°
2026-04-23 18:52 35.90985 -115.20764 33097 ft 549 kts 43°
2026-04-23 18:52 35.96048 -115.13715 33098 ft 549 kts 43°
2026-04-23 18:53 36.01123 -115.06633 33104 ft 550 kts 43°
2026-04-23 18:53 36.06195 -114.99540 33065 ft 551 kts 43°
2026-04-23 18:54 36.11273 -114.92425 33029 ft 551 kts 43°
2026-04-23 18:54 36.16349 -114.85296 33033 ft 552 kts 43°
2026-04-23 18:55 36.21472 -114.78311 33014 ft 550 kts 40°
2026-04-23 18:55 36.26874 -114.71598 32997 ft 550 kts 39°
2026-04-23 18:56 36.31390 -114.65936 32988 ft 551 kts 40°
2026-04-23 18:56 36.37616 -114.58026 32982 ft 552 kts 40°
2026-04-23 18:57 36.42975 -114.51183 32982 ft 552 kts 40°
2026-04-23 18:57 36.48344 -114.44315 32985 ft 553 kts 40°
2026-04-23 18:58 36.53706 -114.37441 32977 ft 554 kts 40°
2026-04-23 18:58 36.59023 -114.30612 32983 ft 554 kts 40°
2026-04-23 18:59 36.64411 -114.23676 32990 ft 555 kts 39°
2026-04-23 18:59 36.69780 -114.16749 32998 ft 555 kts 39°
2026-04-23 19:00 36.75144 -114.09814 32988 ft 556 kts 39°
2026-04-23 19:00 36.80509 -114.02863 33004 ft 556 kts 39°
2026-04-23 19:01 36.85842 -113.95939 32983 ft 556 kts 39°
2026-04-23 19:01 36.91189 -113.88982 32994 ft 557 kts 39°
2026-04-23 19:02 36.95694 -113.83108 33010 ft 558 kts 39°
2026-04-23 19:02 37.01936 -113.74952 33022 ft 558 kts 40°
2026-04-23 19:03 37.06699 -113.67150 33034 ft 571 kts 54°
2026-04-23 19:03 37.10672 -113.58507 33029 ft 572 kts 54°
2026-04-23 19:04 37.14689 -113.49869 33036 ft 573 kts 55°
2026-04-23 19:04 37.18688 -113.41223 33026 ft 574 kts 55°
2026-04-23 19:05 37.22681 -113.32553 33010 ft 575 kts 55°
2026-04-23 19:05 37.26678 -113.23849 33005 ft 575 kts 55°
2026-04-23 19:06 37.30670 -113.15132 33001 ft 577 kts 55°
2026-04-23 19:06 37.34648 -113.06423 33001 ft 578 kts 55°
2026-04-23 19:07 37.38640 -112.97659 33020 ft 577 kts 55°
2026-04-23 19:07 37.42629 -112.88881 33007 ft 578 kts 55°
2026-04-23 19:08 37.46611 -112.80091 32996 ft 578 kts 55°
2026-04-23 19:08 37.50572 -112.71325 32977 ft 579 kts 55°
2026-04-23 19:09 37.54553 -112.62493 32961 ft 579 kts 55°
2026-04-23 19:09 37.58522 -112.53664 32968 ft 579 kts 55°
2026-04-23 19:10 37.62482 -112.44828 33021 ft 579 kts 55°
2026-04-23 19:10 37.66448 -112.35954 33075 ft 580 kts 55°
2026-04-23 19:11 37.71089 -112.27804 33127 ft 565 kts 39°
2026-04-23 19:11 37.76669 -112.20919 33128 ft 560 kts 36°
2026-04-23 19:12 37.81316 -112.15188 33115 ft 560 kts 36°
2026-04-23 19:12 37.87798 -112.07181 33074 ft 559 kts 37°
2026-04-23 19:13 37.93366 -112.00296 33039 ft 559 kts 37°
2026-04-23 19:13 37.98918 -111.93416 33004 ft 558 kts 37°
2026-04-23 19:14 38.04470 -111.86522 32990 ft 558 kts 37°
2026-04-23 19:14 38.09975 -111.79671 32981 ft 557 kts 37°
2026-04-23 19:15 38.15493 -111.72788 32997 ft 556 kts 37°
2026-04-23 19:15 38.20094 -111.67036 33009 ft 554 kts 37°
2026-04-23 19:16 38.25556 -111.60195 33004 ft 553 kts 37°
2026-04-23 19:16 38.31069 -111.53275 33005 ft 551 kts 38°
2026-04-23 19:17 38.39228 -111.43002 33002 ft 549 kts 38°
2026-04-23 19:17 38.44649 -111.36159 32992 ft 547 kts 38°
2026-04-23 19:18 38.50059 -111.29314 32980 ft 545 kts 38°
2026-04-23 19:18 38.55397 -111.22546 32976 ft 544 kts 38°
2026-04-23 19:19 38.63444 -111.12313 32975 ft 542 kts 38°
2026-04-23 19:20 38.71424 -111.02131 32979 ft 540 kts 38°
2026-04-23 19:20 38.76751 -110.95314 32993 ft 539 kts 38°
2026-04-23 19:21 38.84685 -110.85136 32992 ft 537 kts 39°
2026-04-23 19:22 38.89973 -110.78333 32995 ft 535 kts 39°
2026-04-23 19:22 38.97826 -110.68202 32981 ft 532 kts 39°
2026-04-23 19:23 39.03040 -110.61455 32995 ft 530 kts 39°
2026-04-23 19:24 39.10787 -110.51406 32978 ft 528 kts 39°
2026-04-23 19:24 39.18523 -110.41335 32984 ft 525 kts 39°
2026-04-23 19:25 39.28755 -110.27965 32984 ft 522 kts 40°
2026-04-23 19:26 39.36384 -110.17957 32982 ft 520 kts 40°
2026-04-23 19:27 39.49020 -110.01322 32961 ft 516 kts 40°
2026-04-23 19:28 39.59109 -109.88227 32953 ft 514 kts 39°
2026-04-23 19:29 39.66698 -109.78404 32939 ft 512 kts 39°
2026-04-23 19:30 39.74247 -109.68583 32938 ft 511 kts 39°
2026-04-23 19:31 39.81775 -109.58756 32925 ft 511 kts 40°
2026-04-23 19:31 39.86758 -109.52233 32917 ft 510 kts 40°
2026-04-23 19:32 39.91752 -109.45682 32914 ft 510 kts 40°
2026-04-23 19:32 39.96752 -109.39109 32915 ft 510 kts 40°
2026-04-23 19:33 40.01730 -109.32550 32924 ft 509 kts 40°
2026-04-23 19:33 40.09176 -109.22712 32932 ft 508 kts 40°
2026-04-23 19:34 40.14139 -109.16137 32940 ft 508 kts 40°
2026-04-23 19:34 40.19059 -109.09599 32945 ft 494 kts 40°
2026-04-23 19:35 40.21434 -109.06430 32943 ft 479 kts 40°
2026-04-23 19:35 40.23737 -109.03357 32942 ft 466 kts 40°
2026-04-23 19:35 40.25970 -109.00377 32944 ft 453 kts 40°
2026-04-23 19:35 40.28148 -108.97472 32944 ft 442 kts 40°
2026-04-23 19:36 40.30308 -108.94594 32950 ft 442 kts 40°
2026-04-23 19:36 40.34638 -108.88821 32954 ft 447 kts 40°
2026-04-23 19:37 40.38963 -108.83030 32950 ft 447 kts 40°
2026-04-23 19:37 40.43301 -108.77204 32953 ft 446 kts 40°
2026-04-23 19:38 40.47642 -108.71365 32952 ft 446 kts 40°
2026-04-23 19:38 40.51970 -108.65532 32954 ft 446 kts 40°
2026-04-23 19:39 40.56303 -108.59680 32953 ft 446 kts 41°
2026-04-23 19:39 40.60604 -108.53861 32954 ft 445 kts 41°
2026-04-23 19:40 40.64923 -108.48004 32950 ft 445 kts 41°
2026-04-23 19:40 40.69232 -108.42151 32966 ft 445 kts 41°
2026-04-23 19:41 40.73541 -108.36287 32961 ft 444 kts 41°
2026-04-23 19:41 40.77841 -108.30421 32962 ft 444 kts 41°
2026-04-23 19:42 40.82140 -108.24547 32955 ft 444 kts 41°
2026-04-23 19:42 40.86424 -108.18681 32953 ft 443 kts 41°
2026-04-23 19:43 40.90670 -108.12855 32945 ft 443 kts 41°
2026-04-23 19:43 40.94947 -108.06976 32945 ft 443 kts 42°
2026-04-23 19:44 40.99223 -108.01091 32937 ft 444 kts 42°
2026-04-23 19:44 41.03575 -107.95291 32936 ft 442 kts 40°
2026-04-23 19:45 41.08023 -107.89623 32937 ft 442 kts 40°
2026-04-23 19:45 41.12444 -107.83938 32952 ft 443 kts 40°
2026-04-23 19:46 41.16851 -107.78230 32960 ft 443 kts 40°
2026-04-23 19:46 41.21255 -107.72507 32965 ft 443 kts 41°
2026-04-23 19:47 41.24919 -107.67740 32958 ft 443 kts 41°
2026-04-23 19:47 41.30044 -107.61056 32936 ft 443 kts 41°
2026-04-23 19:48 41.34447 -107.55302 32924 ft 443 kts 41°
2026-04-23 19:48 41.38848 -107.49540 32906 ft 444 kts 41°
2026-04-23 19:49 41.43251 -107.43763 32883 ft 444 kts 41°
2026-04-23 19:49 41.47638 -107.37995 32873 ft 444 kts 41°
2026-04-23 19:50 41.52049 -107.32185 32881 ft 445 kts 41°
2026-04-23 19:50 41.56456 -107.26368 32882 ft 445 kts 41°
2026-04-23 19:51 41.60832 -107.20580 32895 ft 445 kts 41°
2026-04-23 19:51 41.65227 -107.14756 32904 ft 446 kts 41°
2026-04-23 19:52 41.68916 -107.09857 32910 ft 446 kts 41°
2026-04-23 19:52 41.74029 -107.03051 32911 ft 446 kts 41°
2026-04-23 19:53 41.78445 -106.97162 32895 ft 447 kts 41°
2026-04-23 19:53 41.82850 -106.91277 32882 ft 448 kts 42°
2026-04-23 19:54 41.87271 -106.85358 32857 ft 448 kts 42°
2026-04-23 19:54 41.91684 -106.79438 32824 ft 449 kts 42°
2026-04-23 19:55 41.96096 -106.73505 32797 ft 449 kts 42°
2026-04-23 19:55 42.00513 -106.67553 32799 ft 449 kts 42°
2026-04-23 19:56 42.04922 -106.61601 32793 ft 449 kts 42°
2026-04-23 19:56 42.09335 -106.55631 32782 ft 450 kts 42°
2026-04-23 19:57 42.13723 -106.49679 32786 ft 450 kts 42°
2026-04-23 19:57 42.17420 -106.44657 32781 ft 450 kts 42°
2026-04-23 19:58 42.21798 -106.38701 32775 ft 450 kts 42°
2026-04-23 19:58 42.26205 -106.32689 32776 ft 450 kts 43°
2026-04-23 19:59 42.30611 -106.26668 32786 ft 450 kts 43°
2026-04-23 19:59 42.34994 -106.20665 32791 ft 449 kts 43°
2026-04-23 20:00 42.39384 -106.14639 32793 ft 449 kts 43°
2026-04-23 20:00 42.43759 -106.08620 32791 ft 449 kts 43°
2026-04-23 20:01 42.48142 -106.02582 32798 ft 448 kts 43°
2026-04-23 20:01 42.52896 -105.97212 32796 ft 444 kts 32°
2026-04-23 20:02 42.57924 -105.92407 32769 ft 444 kts 33°
2026-04-23 20:02 42.62952 -105.87555 32765 ft 443 kts 33°
2026-04-23 20:03 42.67977 -105.82703 32768 ft 443 kts 33°
2026-04-23 20:03 42.73003 -105.77841 32778 ft 443 kts 33°
2026-04-23 20:04 42.78034 -105.72964 32794 ft 443 kts 33°
2026-04-23 20:04 42.83050 -105.68092 32798 ft 443 kts 33°
2026-04-23 20:05 42.88075 -105.63202 32804 ft 443 kts 33°
2026-04-23 20:05 42.93096 -105.58306 32805 ft 443 kts 33°
2026-04-23 20:06 42.98116 -105.53401 32802 ft 443 kts 34°
2026-04-23 20:06 43.03133 -105.48488 32791 ft 444 kts 34°
2026-04-23 20:07 43.08116 -105.43599 32779 ft 444 kts 34°
2026-04-23 20:07 43.13147 -105.38653 32765 ft 444 kts 34°
2026-04-23 20:08 43.18166 -105.33707 32757 ft 444 kts 34°
2026-04-23 20:08 43.23177 -105.28760 32755 ft 444 kts 34°
2026-04-23 20:09 43.28193 -105.23798 32758 ft 444 kts 34°
2026-04-23 20:09 43.33220 -105.18814 32748 ft 445 kts 34°
2026-04-23 20:10 43.37397 -105.14665 32744 ft 446 kts 34°
2026-04-23 20:10 43.43241 -105.08847 32738 ft 446 kts 34°
2026-04-23 20:11 43.48294 -105.03807 32734 ft 447 kts 34°
2026-04-23 20:11 43.53303 -104.98799 32728 ft 447 kts 34°
2026-04-23 20:12 43.58349 -104.93745 32721 ft 448 kts 34°
2026-04-23 20:12 43.63393 -104.88681 32726 ft 449 kts 34°
2026-04-23 20:13 43.68449 -104.83594 32725 ft 449 kts 34°
2026-04-23 20:13 43.73513 -104.78489 32735 ft 450 kts 34°
2026-04-23 20:14 43.78569 -104.73380 32753 ft 451 kts 34°
2026-04-23 20:14 43.83642 -104.68243 32776 ft 452 kts 34°
2026-04-23 20:15 43.88713 -104.63098 32797 ft 452 kts 34°
2026-04-23 20:15 43.93800 -104.57926 32812 ft 453 kts 34°
2026-04-23 20:15 43.96334 -104.55344 32938 ft 455 kts 34°
2026-04-23 20:16 43.98894 -104.52734 33285 ft 456 kts 34°
2026-04-23 20:16 44.04075 -104.47444 33557 ft 466 kts 34°
2026-04-23 20:16 44.06692 -104.44766 33845 ft 467 kts 34°
2026-04-23 20:17 44.09318 -104.42076 34092 ft 468 kts 34°
2026-04-23 20:17 44.11908 -104.39419 34335 ft 469 kts 34°
2026-04-23 20:17 44.14570 -104.36686 34573 ft 470 kts 34°
2026-04-23 20:17 44.17208 -104.33976 34791 ft 471 kts 35°
2026-04-23 20:18 44.19817 -104.31290 35027 ft 472 kts 35°
2026-04-23 20:18 44.22455 -104.28573 35257 ft 473 kts 35°
2026-04-23 20:18 44.25104 -104.25841 35494 ft 473 kts 35°